Wetbulb
52.84 53.68 55.09 55.69 56.11 56.38 56.87 57.27 57.47 56.78 55.91 55.17 54.46 54.24 54.89 54.69 55.09 51.70 50.21 52.56 50.02 48.82 50.41 52.51 52.42 48.90 49.18 47.63 44.87 48.28 49.49 48.05 43.23 40.87 39.91 39.62 39.77 42.02 40.75 41.69 39.84 39.07 37.79 36.96 37.69 35.28 37.00 52.92 53.38 47.88 49.49 51.54 54.42 54.81
52.31 53.59 55.05 55.68 55.90 56.16 56.70 56.36 55.55 55.15 54.62 54.17 53.99 54.30 54.60 54.72 54.34 54.17 49.21 53.84 52.98 48.79 49.44 53.76 53.83 55.08 54.28 53.02 49.04 48.52 47.17 47.54 48.78 42.63 41.00 42.18 41.77 39.49 39.46 39.15 42.83 39.44 41.71 40.18 41.17 41.08 48.14 50.10 50.87 51.97 52.70 53.06 54.83 54.34
52.09 53.47 54.94 55.54 55.76 55.84 55.09 54.79 54.40 54.05 53.99 53.62 53.70 54.07 54.42 54.80 54.60 52.97 49.36 50.55 50.55 48.72 48.95 49.01 48.76 53.04 54.11 54.51 55.71 46.44 49.06 51.55 47.27 48.33 44.85 43.51 41.42 41.41 38.31 40.59 41.93 44.70 44.69 42.28 43.25 45.66 48.12 50.39 53.46 54.70 54.49 54.01 56.55 57.38
51.90 53.86 55.06 54.91 54.83 54.57 54.18 53.79 53.69 53.62 53.64 53.68 53.90 53.89 54.19 54.52 54.42 53.46 47.13 48.98 48.10 48.56 45.14 46.38 53.94 50.91 55.04 53.50 53.92 53.96 51.83 51.52 48.81 49.55 47.76 43.51 42.22 43.01 40.37 43.75 43.36 46.13 45.08 43.28 43.26 47.51 50.42 52.50 53.99 54.69 56.85 57.60 56.22 59.03
51.88 53.91 54.78 54.33 54.08 53.63 53.18 53.31 53.21 53.15 53.15 53.37 53.41 53.50 53.92 54.01 53.84 51.57 49.16 49.44 50.47 47.11 44.21 45.73 50.02 52.10 52.68 52.19 53.02 53.08 51.39 49.77 47.93 46.03 44.94 43.53 45.73 44.29 40.99 41.53 41.64 46.24 43.86 43.30 44.62 49.31 49.84 50.73 54.40 56.06 56.43 56.41 56.13 57.81
51.68 53.75 54.26 53.77 53.54 53.49 52.91 52.61 53.04 52.84 52.48 52.71 53.05 53.31 53.50 53.57 52.85 47.87 46.25 51.30 52.40 52.96 48.16 43.00 49.18 50.05 52.55 51.01 49.84 51.83 52.44 50.74 47.35 47.21 46.20 47.45 49.33 45.27 41.07 40.04 45.53 46.77 46.90 47.34 48.92 50.69 50.63 52.52 55.72 56.39 55.61 56.62 56.62 57.39
51.93 53.51 53.57 53.30 53.21 53.02 52.58 52.15 52.20 52.19 52.21 52.15 52.72 53.18 53.25 52.63 47.89 44.64 45.24 51.51 51.37 50.98 48.23 44.98 45.03 51.51 54.06 51.93 49.64 48.91 53.09 50.72 49.19 46.72 46.28 47.93 46.94 46.93 42.03 40.58 47.08 47.55 49.73 51.47 51.18 52.92 50.35 52.46 53.51 55.45 55.77 56.44 56.82 59.29
51.76 53.34 53.05 52.89 52.75 52.92 52.96 52.73 52.35 52.01 52.11 51.76 52.60 52.72 52.55 52.27 50.22 47.47 49.56 51.14 51.29 49.03 49.49 44.35 44.36 47.36 51.57 48.01 47.19 49.47 47.34 49.81 49.47 48.42 47.28 49.05 47.94 44.72 41.95 46.03 46.75 48.61 50.16 52.09 51.96 51.21 52.63 52.22 51.82 52.31 54.18 56.92 57.84 58.44
51.51 52.95 52.12 51.50 51.48 51.94 52.43 52.75 52.30 52.02 51.60 51.58 52.29 52.48 48.30 48.75 44.82 46.99 55.41 53.06 51.38 49.66 45.83 46.79 44.46 44.05 52.51 49.08 48.39 48.23 48.33 44.83 47.43 45.35 46.12 49.29 45.46 41.84 45.37 47.41 48.79 49.77 49.91 50.70 51.14 52.31 50.66 51.19 51.29 52.40 57.15 57.17 57.21 58.10
51.15 52.59 52.40 51.90 51.53 51.91 52.09 52.22 52.06 51.79 51.31 51.79 48.19 47.58 44.38 46.77 53.27 55.97 51.41 48.19 47.52 48.23 48.02 44.70 47.67 44.25 47.01 47.80 48.36 48.13 47.85 45.02 43.00 45.82 48.56 45.17 44.78 48.06 47.86 51.14 51.88 50.78 50.30 51.27 49.32 46.28 48.28 46.82 49.76 51.25 56.12 58.26 58.85 58.98
50.95 51.55 51.94 51.56 51.15 51.22 51.53 51.71 51.50 51.15 50.74 47.04 46.90 46.92 51.65 55.75 50.77 48.74 46.95 44.80 44.98 43.47 45.91 46.65 46.45 45.93 48.42 46.47 46.97 49.17 44.79 45.18 41.62 44.26 45.37 41.74 42.05 47.46 50.99 49.88 49.39 49.82 50.86 51.76 51.55 51.41 51.51 51.19 50.65 50.86 52.75 57.14 57.97 58.82
50.59 50.51 50.46 50.58 50.64 51.00 51.49 51.25 51.16 47.54 49.23 48.15 47.99 49.32 49.85 48.85 44.47 42.73 44.53 46.29 43.88 41.35 46.33 45.27 44.95 47.03 46.78 52.93 50.20 49.69 45.92 46.01 42.17 48.71 44.52 40.50 45.00 47.08 49.51 51.24 52.15 51.01 51.70 52.02 52.33 52.06 52.97 53.10 52.04 51.91 52.65 55.61 57.67 58.99
50.40 50.36 50.34 50.32 50.90 51.51 51.70 51.29 51.15 50.18 49.42 49.23 48.34 46.93 47.42 45.33 38.21 41.27 39.11 41.99 42.53 48.88 50.37 49.62 46.27 46.57 49.95 52.18 50.40 48.95 45.33 44.56 48.35 44.78 42.49 43.71 45.13 49.04 48.36 51.03 52.47 52.71 53.33 53.73 53.60 53.52 53.59 53.64 53.98 52.75 52.00 54.85 57.59 57.84
50.14 50.32 50.67 51.53 51.63 51.60 51.48 51.22 50.66 49.76 47.33 44.12 45.27 37.03 41.34 41.23 40.49 41.02 45.41 46.24 49.09 50.37 49.86 49.88 47.99 46.47 49.49 47.37 47.85 45.39 47.93 48.19 43.30 40.65 42.26 45.11 47.59 52.46 53.00 51.82 51.63 52.07 53.35 54.24 54.59 54.06 53.38 53.14 53.35 54.10 53.66 53.61 57.14 57.24
50.90 51.12 51.01 50.57 51.28 51.33 51.39 50.79 51.02 48.52 47.49 44.88 44.24 36.72 39.41 43.21 45.63 48.25 48.86 49.37 50.85 50.93 48.83 48.46 48.85 49.30 47.20 46.38 47.15 46.00 44.49 42.96 43.57 42.12 43.76 45.58 51.29 52.27 53.77 55.09 54.47 53.26 52.20 51.42 52.13 52.77 52.89 52.92 52.90 53.06 53.52 53.55 57.77 58.05
50.03 49.56 48.28 50.02 50.74 51.26 51.01 50.50 47.85 46.46 47.69 46.19 43.40 42.20 43.88 42.66 43.29 45.47 46.39 46.44 51.48 51.25 51.21 48.70 47.19 46.69 45.59 45.84 45.05 44.44 43.54 41.82 43.82 47.46 51.31 51.38 50.35 51.00 52.10 55.09 55.91 56.66 56.23 55.69 54.96 51.82 51.27 51.35 53.20 53.13 53.31 53.24 57.59 58.28
49.00 46.63 50.74 50.78 51.57 51.13 50.59 46.75 46.21 46.19 44.75 44.64 42.56 45.53 44.78 44.39 44.66 47.19 49.05 48.77 50.00 49.76 46.86 45.83 43.53 44.15 48.06 43.98 43.03 45.21 43.91 46.86 49.25 51.40 51.71 51.31 50.90 51.00 52.42 53.89 55.13 55.50 55.71 56.14 56.10 55.49 52.01 51.31 52.36 52.51 51.57 53.92 57.28 58.26
46.95 51.35 51.90 51.65 50.48 49.89 47.01 47.88 47.94 46.45 43.36 43.41 40.62 42.81 45.26 46.97 46.12 47.71 48.53 48.68 46.82 47.25 47.12 46.01 48.18 43.44 43.38 43.18 43.06 46.40 48.35 49.52 50.79 51.34 49.84 49.73 49.90 49.96 52.12 51.36 53.74 54.80 54.94 55.44 57.06 55.85 54.69 53.38 52.74 52.54 52.40 55.97 56.81 56.66
49.49 49.80 51.46 51.86 50.89 49.75 44.84 45.12 46.07 41.81 43.10 44.23 43.97 44.03 44.83 45.27 46.69 46.13 46.27 46.72 47.26 48.79 46.86 46.43 42.86 41.86 42.41 45.28 46.75 47.80 50.76 50.36 50.92 49.63 50.22 49.96 50.91 52.98 51.63 52.33 52.70 51.73 53.18 53.89 54.42 54.23 55.80 54.94 53.63 52.95 52.88 57.64 57.91 58.51
50.15 50.38 50.79 51.72 52.05 48.43 46.74 45.58 47.94 43.80 42.58 42.61 43.80 43.56 44.54 44.94 45.91 46.42 45.99 45.29 44.90 46.23 44.28 43.19 42.55 43.92 45.75 47.65 49.30 49.75 50.57 51.09 50.29 48.36 49.73 51.46 50.66 50.08 50.99 51.49 51.54 51.10 52.71 52.72 52.89 50.72 53.47 54.44 53.33 53.37 54.33 57.30 58.07 58.56
49.80 49.64 50.55 50.22 49.11 48.40 45.21 45.17 47.10 47.49 45.75 43.32 44.65 44.15 42.92 43.95 43.52 43.28 43.64 44.90 43.07 42.04 42.72 45.80 46.83 46.12 46.41 49.24 50.71 50.91 51.04 51.14 49.75 49.86 49.41 49.67 51.08 49.79 50.22 51.28 51.55 52.21 52.30 52.01 52.49 52.80 51.27 52.89 54.38 54.79 55.15 54.98 57.79 59.64
50.31 51.77 49.03 48.65 44.57 46.79 44.30 45.24 43.38 44.38 42.98 42.47 42.77 41.99 41.31 40.90 42.09 42.81 44.42 42.85 42.38 43.67 43.90 43.74 44.56 45.60 45.78 47.05 49.86 50.81 51.33 51.19 51.19 51.11 49.36 49.12 50.42 50.16 50.26 52.40 52.84 52.47 52.33 52.75 52.75 52.78 53.36 53.82 54.08 54.48 54.82 55.05 56.58 57.73
49.61 49.77 48.60 47.56 45.01 41.62 39.48 44.25 40.72 41.13 39.39 40.82 44.22 44.17 44.09 45.13 46.91 49.76 43.96 43.50 44.92 46.02 46.29 46.15 46.47 46.90 46.87 47.94 49.81 51.84 52.60 51.63 51.04 51.22 51.24 50.25 50.31 50.98 50.76 53.03 53.49 52.26 50.94 50.93 53.00 53.43 53.12 50.21 51.78 53.76 53.68 55.30 55.10 54.96
49.32 45.04 44.94 44.46 42.03 37.19 41.59 39.99 42.42 42.27 43.25 43.04 44.15 43.90 45.76 45.91 49.01 48.08 45.64 48.50 51.21 51.35 48.77 47.62 46.71 46.54 48.66 49.20 48.83 49.67 51.15 52.27 51.24 49.79 49.56 49.73 49.75 50.92 52.39 52.77 52.41 51.94 52.60 54.03 53.50 53.47 53.00 52.77 49.61 53.16 53.60 54.53 55.23 54.87
41.14 35.56 39.38 34.46 39.89 40.80 41.59 41.08 40.55 42.91 42.42 44.68 44.50 44.54 45.38 48.03 45.02 46.02 46.11 48.39 47.11 49.42 51.14 51.36 50.31 52.68 51.74 52.16 52.95 52.58 52.22 51.10 50.91 50.46 51.00 51.46 50.13 50.38 50.73 50.41 49.96 50.28 53.53 52.54 52.58 52.96 52.77 52.93 52.55 53.51 54.63 54.22 54.30 54.72
35.12 37.51 35.07 42.07 39.72 39.20 39.47 41.55 43.02 43.77 45.15 45.42 45.92 47.79 48.77 46.27 45.18 43.69 45.35 46.60 48.73 52.05 51.14 50.46 51.93 51.43 52.05 52.71 50.85 50.27 52.04 52.25 51.30 50.27 52.20 53.99 52.84 51.55 50.31 48.46 48.21 49.61 54.17 53.03 52.57 52.44 52.50 52.56 52.15 51.61 51.00 49.16 45.91 50.67
34.65 35.19 39.15 42.41 44.08 44.37 43.94 45.14 46.28 44.55 43.83 45.04 42.91 45.48 45.94 42.63 42.97 46.21 49.59 50.81 51.63 53.46 54.69 55.07 53.93 52.17 50.63 50.20 51.10 51.98 51.45 51.90 51.73 52.19 53.26 54.16 53.07 53.21 51.81 49.91 48.22 51.59 54.92 57.26 57.16 56.46 54.87 54.18 53.32 52.51 51.89 52.57 51.99 51.66
38.99 39.23 36.81 39.42 41.20 43.20 42.83 44.06 44.49 44.82 45.75 45.92 46.86 44.62 43.72 43.85 45.36 50.21 51.85 54.01 54.98 54.42 54.10 52.56 52.79 54.97 53.63 52.37 52.26 51.95 52.52 52.76 52.79 52.27 53.39 54.57 55.24 55.54 55.89 56.00 55.52 47.44 55.59 56.69 57.20 56.98 56.46 55.68 54.99 54.75 54.22 53.56 53.49 54.30
38.75 40.94 40.62 39.12 41.40 42.89 45.11 44.97 46.21 48.25 47.58 47.08 45.36 44.92 47.27 50.58 51.43 51.47 52.00 53.97 54.06 52.38 50.76 48.97 50.24 51.50 53.15 54.63 54.23 53.31 52.64 51.89 49.51 47.14 46.88 46.00 48.14 51.12 52.22 52.26 52.33 53.29 53.21 52.25 46.99 50.00 54.85 55.05 54.82 54.92 54.84 53.77 54.14 54.56
40.03 42.75 41.61 42.34 43.66 44.01 47.66 49.77 48.98 48.62 48.96 49.73 49.61 48.49 48.21 48.82 51.63 53.63 54.60 55.38 52.85 51.98 51.24 51.03 50.58 50.47 50.11 50.02 50.00 51.26 52.64 52.64 51.33 50.45 49.05 47.56 49.34 51.59 53.00 52.70 52.70 52.66 54.09 53.77 52.67 47.35 44.34 48.88 47.84 51.63 51.65 51.80 51.77 51.49
45.70 46.10 44.32 45.64 45.71 48.20 50.00 49.80 49.81 49.43 50.00 48.10 48.82 46.76 47.06 48.80 51.06 52.00 51.86 50.85 50.69 49.46 47.33 46.84 47.11 48.54 50.39 50.18 47.57 49.48 50.08 52.13 53.23 53.54 53.58 53.18 53.22 53.38 53.72 53.73 53.57 53.22 51.72 51.06 47.04 46.23 46.15 47.08 48.91 49.72 50.42 50.47 50.53 49.56
45.47 45.48 45.22 45.04 45.43 47.00 51.16 49.90 48.48 48.76 49.02 48.32 47.08 48.31 48.54 48.07 47.11 48.20 50.64 50.22 48.86 47.59 46.89 48.12 48.58 47.35 46.91 47.11 47.30 47.90 45.70 52.19 52.90 53.42 53.54 53.00 53.21 53.75 53.67 52.51 51.67 51.17 50.75 50.14 47.87 47.91 50.25 50.38 48.60 48.16 48.21 49.32 49.87 48.59
44.66 47.36 45.91 44.22 44.26 46.63 49.01 49.24 47.91 47.60 48.14 46.83 46.56 47.87 48.59 47.50 46.66 48.10 49.83 50.62 49.79 49.83 49.33 49.41 48.64 48.46 48.09 48.01 48.07 47.02 45.45 46.59 44.44 44.09 46.81 46.27 46.78 48.54 52.00 51.84 51.68 52.32 50.20 48.72 49.75 48.45 49.63 50.45 49.24 49.04 48.88 48.90 48.90 49.35
MSLP
1019.34 1018.80 1018.28 1017.79 1017.38 1016.99 1016.62 1016.45 1016.42 1016.57 1016.76 1016.91 1017.21 1017.25 1017.26 1017.30 1017.39 1017.47 1016.67 1016.34 1016.52 1015.83 1013.90 1012.94 1012.57 1012.10 1011.68 1011.46 1011.26 1010.19 1009.22 1008.02 1007.48 1007.88 1008.66 1009.11 1009.17 1009.00 1009.33 1009.40 1009.97 1011.09 1012.23 1013.38 1013.79 1012.75 1011.06 1009.43 1009.69 1009.53 1009.76 1010.09 1010.30 1010.67
1018.88 1018.37 1017.85 1017.33 1016.94 1016.66 1016.37 1016.33 1016.53 1016.73 1016.75 1016.93 1016.98 1017.19 1017.21 1017.17 1017.11 1017.01 1016.91 1015.98 1015.96 1016.11 1013.59 1012.02 1011.52 1011.13 1010.79 1010.79 1011.06 1010.85 1010.41 1009.84 1008.17 1008.34 1008.57 1008.87 1009.22 1009.49 1009.65 1010.17 1009.89 1010.63 1010.75 1011.58 1012.17 1011.18 1009.91 1009.52 1009.59 1009.13 1009.22 1010.06 1010.53 1010.80
1018.45 1017.96 1017.43 1016.89 1016.52 1016.40 1016.43 1016.48 1016.65 1016.74 1016.76 1016.87 1016.85 1017.10 1017.04 1016.94 1016.95 1017.03 1016.95 1016.46 1016.07 1015.47 1013.24 1011.60 1010.10 1009.31 1009.34 1009.50 1009.97 1010.82 1009.84 1008.76 1008.28 1008.15 1008.61 1008.66 1008.73 1009.02 1009.81 1009.68 1009.57 1009.83 1010.00 1010.60 1011.32 1010.05 1009.57 1009.40 1009.25 1009.17 1009.33 1009.89 1010.20 1010.50
1018.01 1017.54 1017.14 1016.87 1016.70 1016.66 1016.59 1016.70 1016.82 1016.81 1016.77 1016.81 1016.82 1016.88 1016.83 1016.90 1016.81 1016.78 1017.00 1016.51 1016.49 1015.83 1014.17 1010.55 1008.97 1008.45 1007.73 1008.11 1008.70 1008.75 1008.46 1008.23 1008.81 1008.40 1008.41 1008.32 1008.51 1008.01 1008.69 1008.46 1008.90 1008.98 1009.48 1010.18 1010.29 1009.78 1009.10 1008.74 1008.93 1009.03 1009.42 1009.98 1010.17 1010.56
1017.69 1017.23 1016.85 1016.84 1016.86 1016.82 1016.73 1016.78 1016.95 1016.91 1016.77 1016.74 1016.74 1016.73 1016.74 1016.74 1016.54 1016.42 1016.38 1016.00 1015.81 1016.18 1014.45 1011.47 1009.40 1006.89 1006.71 1007.31 1007.57 1007.95 1008.65 1009.21 1009.50 1008.94 1008.39 1008.38 1007.53 1007.81 1008.42 1008.40 1008.45 1008.04 1008.42 1008.90 1008.90 1008.23 1008.15 1008.04 1008.05 1008.56 1009.33 1009.76 1010.06 1010.73
1017.38 1017.02 1016.74 1016.80 1016.82 1016.84 1016.82 1016.87 1016.97 1016.89 1016.78 1016.73 1016.63 1016.57 1016.56 1016.50 1016.31 1016.27 1015.99 1015.63 1015.56 1015.49 1014.72 1012.59 1009.22 1007.05 1006.31 1006.24 1006.91 1007.33 1008.26 1009.23 1009.32 1009.02 1007.81 1006.97 1006.68 1007.16 1008.31 1008.55 1007.33 1007.08 1007.06 1007.08 1006.97 1007.21 1007.56 1007.63 1007.76 1008.21 1008.92 1009.32 1009.95 1010.50
1017.09 1016.90 1016.75 1016.74 1016.78 1016.83 1016.87 1016.89 1016.89 1016.75 1016.68 1016.64 1016.53 1016.45 1016.40 1016.40 1016.56 1016.35 1015.85 1015.43 1015.24 1015.46 1014.96 1012.85 1009.96 1007.27 1005.78 1005.89 1006.56 1007.11 1007.88 1007.86 1008.11 1008.15 1007.55 1006.67 1007.08 1006.77 1007.96 1008.12 1006.70 1006.33 1006.35 1006.36 1006.07 1006.78 1007.61 1007.64 1007.85 1008.20 1008.69 1009.07 1009.50 1010.07
1016.81 1016.66 1016.67 1016.69 1016.71 1016.73 1016.79 1016.80 1016.72 1016.66 1016.56 1016.52 1016.38 1016.23 1016.14 1016.10 1016.04 1015.71 1014.41 1014.18 1015.09 1015.43 1014.91 1013.36 1010.44 1008.27 1006.03 1005.82 1005.94 1005.74 1006.67 1007.45 1007.29 1007.16 1006.82 1006.44 1006.67 1007.58 1007.62 1006.79 1006.51 1006.25 1006.08 1006.24 1006.39 1006.37 1006.37 1006.63 1007.54 1008.18 1008.46 1009.20 1009.74 1010.26
1016.54 1016.40 1016.57 1016.62 1016.66 1016.68 1016.63 1016.61 1016.58 1016.51 1016.47 1016.37 1016.17 1015.92 1016.08 1015.98 1015.79 1014.73 1014.01 1014.17 1014.46 1015.03 1014.31 1012.94 1011.32 1009.12 1006.76 1006.17 1005.72 1005.39 1005.56 1007.10 1007.02 1006.93 1006.73 1006.58 1007.64 1007.73 1006.61 1006.27 1006.59 1006.12 1005.74 1005.98 1006.05 1006.24 1006.81 1006.99 1007.37 1008.19 1008.52 1009.06 1009.37 1010.07
1016.31 1016.23 1016.35 1016.47 1016.54 1016.50 1016.50 1016.50 1016.43 1016.35 1016.26 1016.18 1016.17 1016.01 1015.50 1014.90 1014.20 1014.38 1014.25 1014.36 1014.48 1014.30 1014.09 1012.77 1011.38 1009.93 1008.40 1007.16 1006.19 1005.90 1005.63 1006.25 1006.74 1006.55 1006.46 1006.73 1007.04 1006.50 1006.12 1005.63 1005.44 1005.67 1005.54 1005.68 1006.24 1006.87 1007.06 1007.45 1007.70 1008.03 1008.32 1008.49 1008.74 1009.23
1016.00 1015.98 1016.10 1016.20 1016.22 1016.28 1016.37 1016.38 1016.31 1016.27 1016.19 1016.32 1016.11 1015.68 1014.81 1014.24 1014.38 1014.24 1013.84 1013.97 1013.80 1013.50 1012.79 1011.66 1011.10 1010.10 1008.60 1008.06 1007.37 1006.83 1006.61 1006.39 1006.73 1006.72 1006.75 1007.06 1006.72 1006.19 1005.63 1005.75 1005.28 1005.38 1005.20 1005.18 1005.18 1005.49 1005.96 1006.32 1007.00 1007.59 1008.06 1008.33 1008.76 1009.27
1015.90 1015.89 1015.94 1015.95 1016.00 1016.12 1016.25 1016.26 1016.25 1016.42 1016.21 1016.31 1016.22 1015.71 1015.15 1014.58 1014.42 1014.21 1013.17 1012.86 1012.74 1012.02 1011.25 1010.68 1010.12 1009.94 1009.00 1008.19 1007.90 1007.53 1007.24 1006.71 1006.93 1006.73 1006.88 1007.04 1006.25 1005.26 1005.02 1005.03 1005.07 1005.29 1005.26 1005.19 1005.22 1005.40 1005.73 1006.15 1006.43 1007.01 1007.43 1008.05 1008.44 1008.74
1015.74 1015.76 1015.77 1015.79 1015.86 1015.93 1016.03 1016.09 1016.10 1016.18 1016.09 1015.91 1015.87 1015.48 1014.81 1014.44 1013.93 1013.29 1012.41 1011.69 1011.35 1010.94 1010.66 1010.31 1009.92 1008.90 1008.44 1008.33 1008.49 1008.63 1008.26 1007.74 1007.19 1007.00 1007.13 1007.02 1006.06 1005.51 1005.23 1004.96 1004.91 1004.89 1005.06 1005.17 1005.20 1005.30 1005.45 1005.63 1006.03 1006.50 1007.06 1007.37 1007.88 1008.60
1015.55 1015.59 1015.54 1015.58 1015.64 1015.75 1015.84 1015.91 1015.98 1016.22 1016.44 1016.10 1015.37 1015.03 1014.52 1013.61 1013.02 1012.23 1011.73 1011.54 1011.13 1010.74 1010.48 1010.28 1009.86 1008.99 1008.77 1008.62 1009.42 1009.65 1009.35 1008.47 1007.89 1007.64 1007.54 1006.96 1006.59 1006.03 1005.42 1005.04 1004.91 1004.75 1004.85 1004.93 1005.00 1005.14 1005.40 1005.63 1005.77 1005.92 1006.29 1006.88 1007.52 1008.25
1015.40 1015.38 1015.34 1015.36 1015.45 1015.60 1015.70 1015.82 1016.00 1016.32 1016.13 1015.71 1015.14 1014.30 1013.52 1012.54 1011.92 1011.31 1010.95 1010.97 1010.44 1010.05 1010.27 1010.17 1009.56 1008.88 1008.54 1008.78 1008.88 1009.15 1009.32 1009.40 1008.26 1007.62 1007.35 1007.20 1006.93 1006.50 1006.02 1005.60 1005.24 1005.03 1005.20 1005.25 1005.14 1005.27 1005.38 1005.50 1005.77 1005.81 1005.98 1006.41 1006.97 1007.48
1015.34 1015.30 1015.15 1014.99 1015.16 1015.42 1015.67 1015.92 1016.18 1016.26 1015.76 1015.21 1014.54 1013.47 1012.38 1012.22 1011.68 1011.08 1010.69 1010.53 1009.99 1009.76 1009.77 1009.75 1009.31 1009.19 1009.13 1008.68 1009.04 1008.71 1008.49 1008.52 1007.99 1007.55 1007.44 1007.38 1007.43 1007.18 1006.75 1006.31 1006.00 1005.69 1005.73 1005.66 1005.54 1005.37 1005.35 1005.54 1005.67 1005.78 1005.72 1006.08 1006.39 1006.83
1015.36 1015.11 1014.78 1014.75 1014.91 1015.41 1015.75 1016.05 1016.16 1015.88 1015.23 1014.37 1013.36 1012.42 1012.22 1011.81 1011.25 1010.67 1010.25 1009.95 1009.68 1010.00 1009.88 1009.76 1009.53 1009.08 1009.31 1009.18 1009.08 1008.45 1008.19 1008.13 1007.90 1007.73 1008.00 1007.75 1007.71 1007.65 1007.32 1006.88 1006.54 1006.20 1006.07 1005.90 1005.65 1005.53 1005.49 1005.45 1005.73 1005.89 1006.18 1005.96 1006.17 1006.30
1015.31 1014.79 1014.75 1014.89 1015.18 1015.58 1015.84 1015.89 1015.56 1014.98 1014.34 1013.32 1012.93 1011.89 1011.50 1010.89 1010.53 1010.17 1009.52 1009.34 1009.59 1009.44 1009.40 1009.18 1009.01 1009.17 1008.84 1008.49 1008.40 1008.23 1008.13 1007.98 1008.06 1008.06 1008.27 1008.04 1007.84 1007.79 1007.68 1007.33 1006.87 1006.53 1006.34 1006.02 1005.85 1005.68 1005.49 1005.56 1005.80 1005.69 1005.40 1005.58 1005.93 1006.43
1015.19 1015.05 1014.94 1014.99 1015.15 1015.33 1015.60 1015.41 1015.15 1014.38 1013.16 1012.57 1011.88 1011.30 1010.89 1010.23 1009.62 1009.38 1009.37 1009.07 1009.09 1008.98 1009.13 1009.12 1009.15 1009.03 1008.69 1008.25 1007.97 1007.93 1007.70 1007.85 1007.87 1007.75 1007.79 1007.81 1007.55 1007.65 1007.56 1007.31 1007.09 1006.87 1006.73 1006.50 1006.10 1005.87 1005.49 1006.10 1005.49 1005.32 1005.27 1005.59 1005.90 1006.21
1015.11 1015.02 1014.96 1015.03 1015.22 1015.15 1014.75 1014.27 1013.91 1013.64 1012.71 1011.69 1011.30 1010.91 1010.57 1010.14 1009.54 1009.28 1009.17 1009.09 1009.12 1009.22 1009.43 1009.25 1008.90 1008.42 1008.18 1007.87 1007.69 1007.50 1007.44 1007.51 1007.67 1007.88 1007.76 1007.63 1007.64 1007.69 1007.50 1007.44 1007.44 1007.17 1006.88 1006.73 1006.48 1006.12 1005.82 1005.56 1005.17 1005.20 1005.39 1005.47 1005.55 1006.00
1014.91 1014.69 1014.86 1015.09 1015.20 1015.12 1014.79 1013.88 1013.27 1012.55 1011.83 1011.53 1010.86 1010.71 1010.39 1009.97 1009.62 1009.33 1009.15 1008.83 1009.24 1009.08 1008.99 1008.50 1008.18 1007.72 1007.59 1007.30 1007.17 1007.25 1007.37 1007.58 1007.63 1007.73 1007.79 1007.76 1007.52 1007.69 1007.56 1007.42 1007.36 1007.21 1007.08 1007.04 1006.95 1006.61 1006.15 1005.77 1005.30 1005.17 1005.12 1005.30 1005.20 1005.29
1014.68 1014.57 1014.86 1015.14 1015.15 1014.73 1014.38 1013.29 1012.86 1011.94 1011.73 1011.10 1010.98 1010.71 1010.49 1010.10 1009.60 1009.24 1008.88 1008.91 1008.64 1008.05 1007.74 1007.62 1007.47 1007.28 1007.36 1007.20 1007.10 1006.94 1006.81 1006.98 1007.23 1007.35 1007.30 1007.40 1007.53 1007.54 1007.59 1007.55 1007.45 1007.41 1007.30 1007.10 1006.90 1006.74 1006.21 1005.57 1005.13 1004.89 1005.05 1005.26 1005.44 1005.64
1014.78 1014.71 1014.68 1014.74 1014.80 1014.17 1013.24 1012.50 1012.37 1011.50 1011.37 1010.76 1010.60 1010.46 1010.18 1009.73 1008.98 1008.63 1008.64 1008.30 1007.76 1007.12 1006.89 1006.71 1006.45 1006.36 1006.68 1006.54 1006.64 1006.61 1006.62 1006.76 1007.22 1007.21 1007.14 1007.27 1007.38 1007.27 1007.21 1007.26 1007.19 1007.20 1007.32 1007.11 1006.92 1006.59 1006.21 1005.57 1005.33 1005.21 1005.36 1005.45 1006.09 1006.49
1014.59 1014.70 1014.49 1014.30 1014.19 1013.67 1012.77 1012.14 1011.50 1011.08 1010.64 1010.40 1010.06 1009.78 1009.47 1009.11 1008.64 1008.34 1008.14 1007.86 1007.29 1006.94 1006.74 1006.41 1006.25 1006.35 1006.50 1006.50 1006.49 1006.50 1006.33 1006.52 1006.63 1006.73 1006.80 1006.94 1007.16 1007.00 1006.93 1007.06 1007.26 1007.13 1007.10 1006.98 1006.67 1006.35 1006.07 1005.80 1005.82 1005.63 1005.61 1006.08 1006.67 1007.14
1015.09 1014.77 1014.75 1014.13 1013.50 1013.18 1012.18 1011.42 1010.89 1010.53 1010.03 1009.71 1009.61 1009.19 1008.97 1008.75 1008.58 1008.05 1007.85 1007.60 1007.33 1007.06 1006.68 1006.40 1006.28 1006.21 1006.24 1006.25 1006.26 1006.12 1005.89 1006.20 1006.44 1006.59 1006.17 1006.53 1006.68 1006.83 1006.85 1006.89 1007.08 1007.05 1006.96 1006.85 1006.52 1006.12 1005.91 1005.86 1005.90 1005.86 1005.94 1006.18 1006.60 1006.73
1014.69 1014.33 1014.15 1013.06 1012.65 1012.39 1011.62 1010.95 1010.50 1010.17 1009.73 1009.22 1008.96 1008.64 1008.39 1008.39 1008.04 1007.91 1007.83 1007.52 1007.24 1006.94 1006.65 1006.38 1006.22 1006.13 1006.14 1006.06 1006.16 1006.04 1005.73 1005.57 1005.97 1006.25 1005.93 1005.91 1006.15 1006.50 1006.78 1007.13 1007.24 1006.93 1006.74 1006.72 1006.45 1006.20 1006.05 1006.00 1006.05 1006.30 1006.42 1006.71 1007.11 1007.13
1014.48 1013.91 1013.23 1012.46 1012.01 1011.51 1011.08 1010.49 1010.00 1009.98 1009.64 1008.99 1008.92 1008.52 1008.17 1008.04 1007.94 1007.87 1007.49 1007.28 1007.12 1006.69 1006.53 1006.27 1006.15 1006.14 1006.18 1006.09 1005.96 1005.83 1005.68 1005.62 1005.76 1005.96 1006.11 1006.12 1006.30 1006.47 1006.70 1006.97 1007.15 1007.15 1006.90 1006.75 1006.59 1006.56 1006.50 1006.53 1006.61 1006.91 1007.19 1007.41 1007.37 1007.63
1014.01 1013.46 1013.13 1012.45 1011.87 1011.20 1010.90 1010.33 1009.90 1009.51 1009.19 1009.13 1008.90 1008.65 1008.46 1008.44 1008.12 1007.67 1007.31 1006.97 1006.74 1006.59 1006.44 1006.24 1006.11 1006.10 1006.12 1006.09 1005.98 1006.01 1006.20 1006.15 1006.16 1006.26 1006.37 1006.68 1006.77 1006.72 1006.74 1006.93 1007.04 1007.08 1007.04 1006.96 1007.00 1006.96 1007.05 1007.12 1007.00 1007.37 1007.65 1007.85 1008.09 1007.35
1013.43 1012.87 1012.60 1012.12 1011.61 1010.93 1010.30 1009.94 1009.58 1009.20 1009.29 1009.17 1009.14 1008.83 1008.52 1008.00 1007.53 1007.31 1007.01 1006.81 1006.67 1006.68 1006.75 1006.67 1006.44 1006.27 1006.13 1006.11 1006.08 1006.17 1006.37 1006.58 1006.75 1006.89 1007.12 1007.45 1007.62 1007.68 1007.48 1007.40 1007.36 1007.31 1007.32 1007.39 1007.41 1007.42 1007.52 1007.68 1007.86 1007.92 1008.05 1008.28 1008.38 1008.60
1012.38 1011.88 1011.83 1011.31 1010.85 1010.19 1009.66 1009.40 1009.34 1009.22 1009.14 1008.98 1008.97 1008.81 1008.52 1008.00 1007.18 1006.97 1006.85 1006.29 1006.37 1006.46 1006.55 1006.70 1006.66 1006.75 1006.69 1006.70 1006.73 1006.45 1006.46 1006.41 1006.42 1006.71 1006.99 1007.25 1007.46 1007.52 1007.59 1007.58 1007.54 1007.53 1007.53 1007.54 1007.78 1007.84 1007.82 1007.98 1008.24 1008.35 1008.55 1008.82 1009.09 1009.32
1011.11 1011.01 1010.94 1010.67 1010.35 1009.76 1009.31 1009.23 1009.16 1009.15 1009.07 1009.03 1008.97 1008.91 1008.63 1008.12 1007.33 1006.79 1006.58 1006.30 1006.43 1006.36 1006.46 1006.50 1006.50 1006.58 1006.66 1006.65 1006.78 1006.92 1006.86 1006.58 1006.57 1006.59 1006.84 1007.05 1007.35 1007.55 1007.67 1007.69 1007.67 1007.63 1007.62 1007.69 1007.82 1007.91 1008.02 1008.22 1008.37 1008.53 1008.75 1008.93 1009.06 1009.22
1010.53 1010.40 1010.39 1010.27 1009.97 1009.56 1009.23 1009.09 1009.07 1009.01 1008.90 1008.81 1008.71 1008.44 1008.15 1007.93 1007.69 1006.98 1006.30 1006.39 1006.48 1006.61 1006.52 1006.42 1006.45 1006.69 1006.53 1006.42 1006.50 1006.63 1006.58 1006.80 1006.93 1006.87 1006.93 1007.10 1007.22 1007.23 1007.35 1007.51 1007.57 1007.61 1007.76 1007.86 1007.80 1007.89 1008.02 1008.07 1008.19 1008.38 1008.47 1008.45 1008.62 1008.66
1009.99 1009.87 1009.91 1009.97 1009.79 1009.50 1009.16 1009.11 1008.86 1008.89 1008.86 1008.91 1008.63 1008.20 1007.87 1007.70 1007.28 1006.69 1006.11 1006.02 1006.12 1006.16 1006.40 1006.50 1006.54 1006.57 1006.68 1006.72 1006.66 1006.85 1006.81 1006.99 1006.92 1006.90 1006.85 1006.88 1006.87 1007.12 1007.27 1007.33 1007.42 1007.44 1007.49 1007.65 1007.76 1007.88 1007.96 1008.16 1008.50 1008.77 1008.99 1008.92 1008.90 1008.87
Wind_Speed
16 17 16 16 13 12 10 8 6 6 6 5 3 2 3 3 4 1 3 3 2 3 6 10 10 6 3 2 2 5 7 3 3 4 4 4 4 5 3 4 6 7 6 3 3 1 7 5 2 7 6 1 4 4
16 17 17 15 12 10 7 3 5 5 4 4 3 3 3 3 4 3 2 1 1 3 7 6 12 17 17 13 3 2 4 3 3 4 1 3 2 2 5 3 2 2 7 7 8 9 6 1 3 3 4 4 5 5
15 17 16 12 7 3 4 4 4 4 4 4 3 4 4 5 4 1 3 3 2 3 7 5 9 11 11 19 12 5 5 6 2 2 3 2 3 5 5 5 4 1 3 5 3 4 7 1 4 4 3 3 5 4
14 15 12 4 2 3 4 2 1 2 3 3 4 4 5 6 5 3 2 1 0 3 6 7 5 10 4 9 16 23 17 5 3 1 3 2 3 3 5 4 4 5 6 6 2 4 4 4 6 4 3 6 7 5
13 14 7 4 3 3 2 2 2 3 3 4 4 4 5 6 7 4 4 4 4 2 4 8 14 17 13 15 14 17 16 9 3 5 1 5 3 3 1 3 1 5 8 6 7 9 7 7 7 6 7 8 9 9
12 11 5 5 4 3 3 3 3 3 3 4 5 5 5 6 7 2 3 2 2 2 3 6 5 6 6 7 12 15 10 4 3 4 5 2 0 4 4 1 5 4 4 6 7 8 4 3 6 6 8 7 9 10
10 8 4 4 3 4 4 4 4 4 4 5 5 6 5 5 1 2 3 1 2 2 2 6 6 5 5 5 4 4 6 5 5 4 4 3 0 4 4 3 6 2 6 6 6 10 2 3 7 9 6 8 9 7
9 7 6 4 3 4 5 5 5 5 6 5 6 6 6 7 6 5 4 11 5 1 2 4 6 6 3 2 3 4 5 4 2 4 2 2 4 3 2 5 4 2 7 6 6 3 8 5 6 6 6 7 9 10
10 7 5 4 4 6 6 6 6 6 6 6 7 8 2 1 2 4 1 9 1 2 3 3 4 5 6 3 2 2 3 4 0 3 3 5 3 3 8 8 7 8 8 10 7 7 6 8 9 9 9 8 11 8
9 8 8 7 7 6 4 5 6 6 5 6 2 1 2 4 7 6 2 2 1 2 3 4 3 5 3 4 4 1 2 3 4 4 3 3 5 3 6 10 13 10 9 9 7 3 4 2 6 8 10 12 13 13
7 8 8 9 7 5 5 7 5 3 2 0 1 2 2 4 1 2 2 3 3 3 4 4 4 3 3 2 3 3 2 1 4 4 5 2 3 7 8 10 8 7 10 10 8 9 9 8 10 9 7 11 11 12
6 5 6 6 5 5 6 6 3 1 2 2 3 3 2 1 2 2 3 3 4 4 3 3 4 5 5 1 2 4 3 3 2 1 3 2 6 6 5 8 8 9 8 7 7 9 9 8 8 9 10 11 14 16
7 6 7 6 6 6 7 6 6 5 6 1 2 2 1 1 1 3 2 2 2 1 3 3 5 3 2 3 4 4 5 3 3 3 2 5 4 5 6 4 7 7 7 5 5 5 7 7 6 8 9 9 12 13
6 6 6 5 5 5 5 5 4 1 1 1 2 3 3 3 4 4 2 2 3 3 4 5 4 3 3 4 3 3 4 2 4 2 4 3 4 7 5 3 3 6 8 8 8 7 8 8 8 8 9 9 12 12
6 4 4 6 7 5 5 5 5 1 2 3 2 4 5 5 3 3 4 2 5 3 0 3 3 1 1 4 2 3 4 3 5 5 3 3 4 5 6 5 5 6 3 1 2 5 7 7 6 7 7 10 12 11
3 5 5 8 6 7 6 5 2 1 2 3 4 3 4 2 3 3 2 3 3 1 2 1 1 4 4 3 2 4 5 4 3 3 2 1 3 4 5 6 6 6 5 4 4 3 3 5 7 7 5 8 11 14
2 2 4 5 8 9 9 2 2 4 3 4 4 4 4 4 5 3 2 3 1 2 3 1 1 3 2 2 4 3 3 3 2 1 1 1 2 4 4 5 6 6 6 6 4 5 4 3 2 4 7 7 9 12
2 3 6 10 7 5 1 2 2 3 6 5 3 4 3 4 3 3 5 2 2 2 2 4 3 2 3 2 2 3 3 3 3 1 1 0 2 2 2 2 4 5 6 6 5 4 2 2 5 6 7 8 8 7
1 3 3 8 4 1 3 3 3 4 6 3 4 3 4 4 3 2 2 2 2 2 2 1 1 2 3 3 3 2 2 2 2 2 1 2 2 3 3 2 3 6 6 6 6 4 3 7 6 3 4 7 8 8
8 6 3 1 2 2 3 3 3 3 4 4 2 3 2 3 2 2 2 2 1 2 1 3 4 4 4 3 4 3 3 2 2 1 2 3 1 3 3 4 3 4 3 5 5 5 4 4 3 3 4 5 7 7
2 1 6 3 2 3 3 3 3 4 3 2 2 1 4 3 3 2 3 3 2 4 4 4 4 4 4 3 3 2 2 3 4 4 3 3 2 1 3 3 3 1 2 3 3 5 5 3 4 4 5 5 5 5
1 5 2 2 1 3 3 4 4 3 2 3 2 1 3 3 3 3 1 1 3 5 5 5 5 4 3 3 5 5 6 3 3 2 3 2 3 2 2 2 1 2 3 3 3 4 5 5 3 4 4 2 4 4
3 2 2 3 3 1 8 1 2 3 2 3 0 2 2 3 3 1 2 3 4 4 4 5 5 6 6 5 4 4 5 6 4 5 5 3 3 4 3 3 2 1 3 3 2 4 5 7 1 4 4 6 6 5
2 1 2 2 4 5 3 3 3 3 2 2 2 3 2 3 3 2 2 3 3 3 3 3 2 2 1 1 3 4 5 4 4 3 3 3 3 4 3 2 1 1 2 3 4 4 4 4 1 4 5 8 8 10
0 4 3 4 3 2 4 3 3 2 3 3 3 3 3 1 2 2 2 2 3 3 4 3 1 1 2 2 2 4 5 5 4 5 4 4 2 1 1 1 2 2 1 3 4 4 3 2 1 3 5 6 8 10
2 3 4 3 3 3 3 3 4 3 3 3 4 3 2 2 2 2 2 3 2 3 3 3 2 1 1 2 2 2 3 2 4 3 3 4 4 3 2 0 3 4 3 1 2 3 0 3 4 5 6 6 8 11
3 4 4 4 3 2 3 3 3 2 4 3 2 3 2 2 3 2 2 2 2 3 2 2 1 1 1 0 1 2 3 2 3 2 3 4 3 2 3 3 1 2 2 2 4 5 5 6 7 6 6 4 6 8
4 2 3 3 3 2 3 3 3 3 2 2 2 2 3 1 2 3 3 3 3 3 2 2 2 1 3 2 1 3 4 4 5 5 5 6 5 4 4 4 3 4 3 3 3 4 5 4 5 6 6 7 4 7
3 3 2 4 3 3 3 3 3 2 0 1 1 2 3 3 2 2 2 3 1 2 4 3 3 4 4 3 3 3 4 3 3 3 4 2 2 2 2 2 1 1 2 3 6 3 4 4 5 4 5 4 3 4
4 4 3 3 3 3 2 3 3 1 1 2 1 2 3 3 4 2 1 4 4 4 2 3 3 1 1 2 2 3 2 1 2 4 5 3 4 3 3 1 1 2 2 3 3 3 6 4 4 3 4 4 3 3
2 3 3 1 3 3 3 3 1 0 1 1 1 1 3 3 4 3 2 2 1 3 3 3 4 1 3 2 2 2 2 4 5 7 6 5 4 4 3 2 2 1 1 1 2 3 3 3 3 4 5 6 6 5
3 4 3 4 4 3 2 2 0 1 1 3 2 1 4 4 3 3 3 1 3 3 3 4 5 2 1 2 3 1 3 4 4 4 7 4 5 5 5 4 3 3 2 1 1 3 4 3 2 2 1 2 3 4
2 1 1 0 2 2 3 2 3 3 4 3 3 2 2 3 2 4 2 3 4 5 4 3 3 4 5 5 5 5 5 3 0 4 6 6 4 3 2 2 2 2 2 2 2 5 4 8 7 6 5 6 6 5
Wind_Direction
302 306 307 302 295 294 295 280 254 178 184 192 217 257 306 322 323 293 271 201 173 263 273 255 243 235 263 183 259 300 332 306 6 78 118 195 150 212 117 190 182 156 124 178 88 85 276 159 73 163 207 213 184 157
303 306 306 299 287 286 282 157 153 175 181 186 200 256 279 299 327 4 285 267 16 214 263 278 253 239 230 219 164 275 248 258 249 79 91 108 131 96 143 215 46 93 172 178 163 215 248 110 257 289 115 142 169 176
304 307 306 301 286 189 150 145 161 181 187 204 227 270 297 316 302 294 273 297 288 266 274 249 231 245 231 230 207 189 250 229 24 182 165 220 150 129 155 236 122 114 161 105 115 261 243 264 295 280 126 144 139 141
302 306 299 275 152 139 127 136 183 222 232 250 261 283 303 304 297 266 238 250 55 286 272 277 317 273 206 202 203 215 235 282 2 12 205 154 194 167 194 160 145 188 135 146 262 314 356 286 213 233 130 120 106 93
301 305 260 213 186 177 159 188 240 259 263 269 278 288 298 305 308 271 220 228 222 213 288 289 301 275 243 216 201 207 221 243 28 320 75 228 160 116 43 72 206 181 166 147 214 202 168 231 197 158 170 164 136 148
295 300 238 212 202 207 219 251 254 265 294 304 303 297 302 318 336 332 321 105 196 218 281 295 287 285 319 155 191 187 192 175 204 191 246 273 281 109 99 159 244 218 203 178 197 168 168 317 170 168 172 168 158 161
289 280 248 223 220 226 245 271 277 287 284 291 298 299 299 306 66 193 226 172 121 327 273 291 289 271 271 170 158 151 156 187 173 210 238 133 346 79 106 157 247 245 196 198 137 109 47 155 188 189 185 191 181 159
285 258 236 223 251 265 256 268 279 293 295 297 301 301 297 297 292 283 251 229 159 269 259 278 277 309 4 282 165 171 137 148 247 227 296 119 56 21 126 235 257 173 123 109 158 215 182 173 119 148 177 131 150 168
286 220 214 240 274 289 275 258 275 284 290 295 301 302 352 152 242 243 106 122 135 170 276 266 302 294 351 295 276 39 113 153 181 189 208 109 100 230 218 165 195 200 159 171 173 148 143 165 183 159 159 150 163 168
269 227 224 230 239 262 276 272 277 287 301 317 331 246 275 222 239 140 257 98 165 225 235 251 281 276 354 334 323 53 9 130 140 243 87 111 205 261 249 192 187 198 174 143 114 130 152 175 189 167 177 170 173 172
286 244 233 237 242 246 265 266 278 332 359 269 219 238 323 307 337 228 246 197 151 237 215 235 221 287 305 334 310 16 353 90 136 239 151 188 256 211 208 210 223 211 178 190 181 181 187 184 189 181 180 173 167 162
281 269 255 249 250 251 255 261 242 71 278 298 287 287 288 228 267 269 240 158 208 238 213 238 218 188 278 246 2 3 334 37 153 227 105 180 252 247 187 201 209 210 204 195 197 195 196 204 201 190 181 172 176 177
268 260 257 247 254 257 252 246 221 232 333 284 230 257 219 249 314 242 256 268 289 21 317 328 304 214 43 24 42 21 339 333 291 56 200 230 272 284 251 247 236 208 204 215 205 212 220 223 186 181 182 188 168 168
266 257 252 253 245 247 235 214 196 67 285 248 229 255 212 204 243 213 261 248 267 249 270 292 251 217 210 76 156 99 306 296 357 102 242 255 292 311 305 236 189 215 208 216 226 215 212 220 224 204 180 170 166 169
265 270 280 270 240 234 216 187 152 108 265 254 225 240 222 231 262 240 243 185 234 244 360 294 257 246 32 143 152 134 95 294 250 212 236 269 326 18 22 36 62 75 66 165 205 200 216 217 209 225 203 169 178 168
270 293 240 230 224 190 159 128 126 215 244 240 237 270 247 27 287 279 229 258 254 198 343 263 343 40 329 99 44 264 155 232 259 233 257 134 29 352 11 22 34 53 50 25 349 281 236 206 203 218 195 175 172 167
299 254 336 185 160 152 159 122 170 225 247 242 247 228 240 256 236 247 257 264 179 123 230 67 359 149 99 232 206 228 190 232 243 315 282 103 71 3 358 29 20 12 12 358 1 355 272 253 200 147 170 193 180 179
258 310 141 125 123 129 164 227 258 237 244 244 238 251 215 225 220 211 249 250 158 216 173 195 162 241 229 220 195 229 238 249 228 221 298 338 57 1 311 24 10 13 1 342 320 339 323 282 213 222 196 166 157 155
319 345 20 180 174 211 174 240 191 258 241 240 249 246 225 255 245 251 246 259 214 168 100 51 225 212 245 230 206 218 200 225 233 242 228 261 0 321 283 1 47 24 358 335 331 326 342 266 237 222 179 150 175 172
261 266 251 194 186 265 254 243 181 246 269 246 263 268 231 234 265 263 254 243 172 127 184 212 210 215 196 229 212 212 211 197 146 42 340 312 267 295 344 23 343 314 4 351 348 345 335 296 249 193 182 186 152 173
248 208 142 147 224 224 264 279 240 225 257 262 270 330 278 335 291 275 252 180 158 202 215 217 221 225 233 242 204 184 226 176 208 185 215 279 259 211 308 305 289 3 31 356 357 323 336 305 279 220 183 193 214 169
297 161 110 199 235 242 247 227 225 270 268 254 335 360 295 297 275 252 229 135 233 223 199 190 208 211 200 223 235 217 241 230 213 235 254 217 286 324 347 323 350 1 326 313 321 307 297 295 285 230 173 129 98 108
280 195 235 179 242 226 259 81 222 253 254 269 275 304 261 263 243 175 258 224 250 241 235 227 221 199 207 234 218 249 213 193 223 235 239 224 255 265 266 235 202 52 330 299 298 304 295 305 356 111 97 104 100 96
326 220 247 225 180 260 313 268 231 267 283 271 260 286 245 248 294 263 244 242 272 306 316 289 186 163 28 148 205 230 241 199 232 282 209 188 249 274 221 236 180 156 231 283 287 290 295 294 114 133 133 121 119 115
349 275 131 274 254 257 247 231 241 246 254 204 223 247 250 206 264 287 304 288 318 317 326 325 278 207 170 212 244 247 231 192 201 229 252 194 158 48 287 270 251 234 307 320 308 291 251 262 216 160 138 142 157 150
235 240 172 258 206 185 248 290 357 319 289 226 230 235 206 217 212 200 268 292 298 304 316 329 337 14 331 231 238 291 271 213 160 197 268 187 172 167 183 301 340 326 354 298 341 332 181 120 89 76 83 90 114 117
261 275 255 241 261 289 289 276 263 243 273 297 352 314 318 334 21 282 302 277 271 284 310 341 11 134 153 70 291 334 349 87 124 136 77 68 89 115 138 150 149 253 322 39 50 40 45 58 77 77 85 100 103 134
237 264 213 289 314 227 246 255 260 255 285 334 308 346 5 56 275 271 238 268 256 290 338 346 349 55 56 15 308 101 69 67 76 79 71 46 30 35 66 82 87 104 93 86 94 77 63 65 105 98 84 68 47 79
245 246 171 268 248 262 234 221 259 274 122 64 11 319 296 246 245 261 272 243 260 43 56 28 328 356 8 43 50 77 120 129 106 97 87 99 31 357 24 109 114 68 70 42 34 76 132 134 118 96 102 121 109 81
250 170 203 239 236 239 268 192 264 311 284 237 222 328 328 292 267 171 215 306 335 316 287 196 222 108 329 31 6 341 44 93 151 136 139 147 187 180 180 183 336 3 35 46 70 73 95 80 89 86 100 105 135 158
264 170 224 258 305 266 258 282 318 227 270 298 354 173 258 286 308 300 260 252 348 28 48 56 52 75 176 180 120 112 5 353 70 98 105 108 116 134 161 201 209 221 203 112 110 137 137 139 159 161 167 174 177 181
200 201 171 211 253 287 328 359 30 213 353 18 311 325 351 14 326 290 259 108 76 75 27 100 93 51 19 72 81 212 203 131 145 140 135 141 155 169 171 176 185 173 167 278 74 68 64 80 69 106 239 238 210 194
192 175 155 152 358 39 321 8 35 39 16 343 300 282 238 193 254 271 303 205 184 166 173 159 142 136 130 132 125 106 89 102 72 227 204 194 199 196 183 192 208 223 129 147 192 163 128 91 111 116 101 111 118 103